Location: ???????
(55.7027°N, 37.3832°E)
Time: 11:53:04
(UTC+00:00)

Cosmos 1603 - Pass Details

Date: 14 April 2026
Orbit: 829 x 859 km, 71.0° (Epoch: 10 May)

Event Time Altitude Azimuth Distance (km) Brightness Sun altitude
Exits shadow 22:23:19 45° 244° (WSW) 1,135 4.0 -23.7°
Maximum altitude 22:24:59 67° 308° (NW) 914 3.9 -23.6°
Drops below altitude 10° 22:30:41 10° 32° (NNE) 2,487 7.1 -23.4°
Sets 22:33:10 0° 35° (NE) 3,431 8.1 -23.3°
